Tracking 23731 objects as of 26-Sep-2021
HD Live streaming from Space Station
objects crossing your sky now

STARLINK-1949

Track STARLINK-1949 now!
10-day predictions
STARLINK-1949 is classified as:


NORAD ID: 46777
Int'l Code: 2020-074AQ
Perigee: 289.6 km
Apogee: 301.6 km
Inclination: 53.0 °
Period: 90.3 minutes
Semi major axis: 6666 km
RCS: Unknown
Launch date: October 24, 2020
Source: United States (US)
Launch site: AIR FORCE EASTERN TEST RANGE (AFETR)
aabbcc
Your satellite tracking list
Your tracking list is empty




NASA's NSSDC Master Catalog

Two Line Element Set (TLE):
1 46777U 20074AQ  21269.02041949  .00949725  41299-3  24025-2 0  9992
2 46777  53.0470  18.2558 0008981 305.2613  54.7574 15.94940782 52230
Source of the keplerian elements: AFSPC